Regional Weather Roundup
Issued by NWS

Home | Current Version | Previous Version | Text Only | Print | Product List | Glossary On
Versions: 1 2 3 4 5 6 7 8 9 10 11 12 13 14 15 16 17 18 19 20 21 22 23 24 25 26 27 28
000
ASUS45 KPSR 260510
RWRAZ

ARIZONA HOURLY REGIONAL WEATHER ROUNDUP
NATIONAL WEATHER SERVICE PHOENIX AZ
1000 PM MST THU AUG 25 2016

NOTE: FAIR INDICATES FEW OR NO CLOUDS BELOW 12,000 FEET WITH NO
SIGNIFICANT WEATHER AND/OR OBSTRUCTIONS TO VISIBILITY.

AZZ001>003-036-260600-
NORTHWEST ARIZONA

CITY           SKY/WX    TMP DP  RH WIND       PRES   REMARKS
BULLHEAD CITY  FAIR      99  46  16 S13       29.76R
KINGMAN        FAIR      80  52  37 S8        29.99R
$$

AZZ004>008-015-016-018-260600-
NORTH CENTRAL ARIZONA

CITY           SKY/WX    TMP DP  RH WIND       PRES   REMARKS
GRAND CANYON     N/A    N/A N/A N/A MISG      30.28F
PRESCOTT       TSTM      63  55  75 SE7       30.17F
FLAGSTAFF      LGT RAIN  52  50  93 VRB6      30.30F
PAGE           LGT RAIN  64  55  72 S6        30.21R
$$

AZZ009>014-017-260600-
NORTHEAST ARIZONA

CITY           SKY/WX    TMP DP  RH WIND       PRES   REMARKS
WINSLOW        FAIR      63  53  70 N8        30.22R
SAINT JOHNS    CLOUDY    63  49  60 W5        30.22R
WINDOW ROCK    FAIR      57  47  69 N8        30.32S
$$

AZZ023-260600-
GREATER PHOENIX AREA

CITY           SKY/WX    TMP DP  RH WIND       PRES   REMARKS
PHOENIX        FAIR      93  55  27 SW5       29.82R
LUKE AFB       FAIR      94  55  26 SW6       29.82R
DEER VALLEY    FAIR      89  54  30 N5        29.85R
SCOTTSDALE     FAIR      92  53  26 N3        29.87R
MESA-GATEWAY   PTCLDY    90  54  29 CALM      29.86R
$$

AZZ027-028-260600-
SOUTHWEST MARICOPA COUNTY AND PINAL COUNTY

CITY           SKY/WX    TMP DP  RH WIND       PRES   REMARKS
CASA GRANDE    MOCLDY    90  50  25 N5        29.88R
GILA BEND      CLEAR     92  55  28 S8        29.82R
$$

AZZ503-504-507>509-260600-
SOUTHEAST ARIZONA

CITY           SKY/WX    TMP DP  RH WIND       PRES   REMARKS
TUCSON         FAIR      86  54  33 S8        29.99R
DAVIS-MONTHAN  CLOUDY    84  55  37 SW8       29.98R
NOGALES        FAIR      70  58  65 E5        30.10R
SIERRA VISTA   CLOUDY    74  49  40 SW6       30.14F
DOUGLAS        FAIR      69  54  58 S5        30.11R
SAFFORD        CLOUDY    78  55  44 SW8       30.02R
$$

AZZ020-021-025-026-031-260600-
SOUTHWEST ARIZONA

CITY           SKY/WX    TMP DP  RH WIND       PRES   REMARKS
YUMA           FAIR      88  69  53 S6        29.78R
$$

CAZ031-033-041-043-047-048-061-260600-
SOUTHERN CALIFORNIA

CITY           SKY/WX    TMP DP  RH WIND       PRES   REMARKS
DOWNTOWN L.A.  FAIR      66  60  81 CALM      29.91S
L.A. AIRPORT   CLOUDY    66  61  84 SW6       29.92R
SAN DIEGO      MOCLDY    67  59  75 W3        29.95R
BURBANK        FAIR      67  60  78 SE9       29.91S
ONTARIO        FAIR      67  58  72 SW6       29.93R
RIVERSIDE      FAIR      69  57  65 W3        29.93R
PALM SPRINGS   FAIR      90  47  22 NW14      29.79R
EL CENTRO NAS  FAIR      89  38  16 S7        29.77R
IMPERIAL       FAIR      92  61  35 CALM      29.75R
BLYTHE         FAIR      92  56  29 S14       29.77R
NEEDLES        FAIR      96  50  20 SW8       29.78R
$$

NVZ020-UTZ003-260600-
SOUTHERN NEVADA-UTAH

CITY           SKY/WX    TMP DP  RH WIND       PRES   REMARKS
LAS VEGAS      FAIR      91  30  11 S5        29.80R
SALT LAKE CITY FAIR      71  30  21 SE8       30.01R
$$

NMZ009-TXZ055-260600-
NEW MEXICO-WEST TEXAS

CITY           SKY/WX    TMP DP  RH WIND       PRES   REMARKS
ALBUQUERQUE    MOCLDY    72  48  42 SW9       30.19R
EL PASO        FAIR      74  54  49 S8        30.11S
$$


........................KEY........................
SKY/WX - SKY CONDITION/WEATHER
TMP    - TEMPERATURE IN FAHRENHEIT
DP     - DEW POINT IN FAHRENHEIT
RH     - RELATIVE HUMIDITY IN PERCENT
WIND   - DIRECTION AND SPEED IN MILES PER HOUR (MPH)
VRB    - VARIABLE WIND DIRECTION
PRES   - MEAN SEA LEVEL PRESSURE IN INCHES OF MERCURY
         F - FALLING PRESSURE   R - RISING PRESSURE
         S - STEADY PRESSURE
VSB    - VISIBILITY IN MILES
HX     - HEAT INDEX IN FAHRENHEIT
WCI    - WIND CHILL INDEX IN FAHRENHEIT
TC     - TEMPERATURE IN CELSIUS WHICH IS ALSO KNOWN AS
         TEMPERATURE IN CENTIGRADE
AFB    - AIR FORCE BASE
         LUKE AFB IS LUKE AIR FORCE BASE
         DAVIS-MONTHAN IS DAVIS-MONTHAN AIR FORCE BASE
NAS    - NAVAL AIR STATION
         EL CENTRO NAS IS EL CENTRO NAVAL AIR STATION
N/A    - NOT AVAILABLE





USA.gov is the U.S. government's official web portal to all federal, state and local government web resources and services.